• In Hungary
  • List of Countries
  • For 7 days
  • Water Temperature
  • Satellite Maps
  • Weather Map
  • News
  • Weather Widgets
  • user-avatar
    Login

    Hourly Weather Madaba

    Today, 20 August, Sunday

    Time Temperature Precipitation Wind Pressure Humidity
    00:00 +28°C° 0 mm 2 mps 695 mmHg 36%
    01:00 +28°C° 0 mm 2 mps 695 mmHg 38%
    02:00 +27°C° 0 mm 3 mps 695 mmHg 41%
    03:00 +27°C° 0 mm 3 mps 695 mmHg 42%
    04:00 +26°C° 0 mm 2 mps 695 mmHg 43%
    05:00 +26°C° 0 mm 2 mps 695 mmHg 45%
    06:00 +27°C° 0 mm 2 mps 695 mmHg 39%
    07:00 +28°C° 0 mm 2 mps 695 mmHg 33%
    08:00 +30°C° 0 mm 2 mps 696 mmHg 25%
    09:00 +32°C° 0 mm 2 mps 696 mmHg 23%
    10:00 +34°C° 0 mm 3 mps 696 mmHg 20%
    11:00 +36°C° 0 mm 3 mps 696 mmHg 18%
    12:00 +36°C° 0 mm 3 mps 695 mmHg 17%
    13:00 +37°C° 0 mm 3 mps 695 mmHg 16%
    14:00 +38°C° 0 mm 3 mps 695 mmHg 16%
    15:00 +37°C° 0 mm 4 mps 695 mmHg 18%
    16:00 +37°C° 0 mm 4 mps 694 mmHg 19%
    17:00 +36°C° 0 mm 5 mps 694 mmHg 21%
    18:00 +34°C° 0 mm 5 mps 694 mmHg 26%
    19:00 +33°C° 0 mm 5 mps 694 mmHg 32%
    20:00 +30°C° 0 mm 5 mps 694 mmHg 37%
    21:00 +29°C° 0 mm 4 mps 694 mmHg 40%
    22:00 +28°C° 0 mm 4 mps 694 mmHg 44%
    23:00 +27°C° 0 mm 4 mps 694 mmHg 47%

    Tomorrow, 21 August, Monday

    Time Temperature Precipitation Wind Pressure Humidity
    00:00 +27°C° 0 mm 3 mps 694 mmHg 50%
    01:00 +26°C° 0 mm 3 mps 694 mmHg 52%
    02:00 +26°C° 0 mm 3 mps 694 mmHg 54%
    03:00 +26°C° 0 mm 3 mps 694 mmHg 56%
    04:00 +25°C° 0 mm 2 mps 694 mmHg 58%
    05:00 +25°C° 0 mm 2 mps 694 mmHg 60%
    06:00 +26°C° 0 mm 3 mps 694 mmHg 55%
    07:00 +27°C° 0 mm 3 mps 695 mmHg 50%
    08:00 +28°C° 0 mm 3 mps 695 mmHg 46%
    09:00 +29°C° 0 mm 4 mps 695 mmHg 41%
    10:00 +32°C° 0 mm 4 mps 695 mmHg 36%
    11:00 +33°C° 0 mm 4 mps 695 mmHg 31%
    12:00 +34°C° 0 mm 4 mps 695 mmHg 29%
    13:00 +34°C° 0 mm 5 mps 695 mmHg 27%
    14:00 +35°C° 0 mm 5 mps 694 mmHg 26%
    15:00 +34°C° 0 mm 5 mps 694 mmHg 28%
    16:00 +34°C° 0 mm 5 mps 694 mmHg 30%
    17:00 +33°C° 0 mm 5 mps 694 mmHg 33%
    18:00 +32°C° 0 mm 5 mps 694 mmHg 38%
    19:00 +29°C° 0 mm 5 mps 694 mmHg 43%
    20:00 +28°C° 0 mm 5 mps 694 mmHg 49%
    21:00 +27°C° 0 mm 4 mps 694 mmHg 52%
    22:00 +26°C° 0 mm 4 mps 694 mmHg 56%
    23:00 +26°C° 0 mm 4 mps 694 mmHg 60%

    Day after tomorrow, 22 August, Tuesday

    Time Temperature Precipitation Wind Pressure Humidity
    00:00 +25°C° 0 mm 4 mps 694 mmHg 62%
    01:00 +25°C° 0 mm 3 mps 694 mmHg 64%
    02:00 +24°C° 0 mm 3 mps 694 mmHg 66%
    03:00 +24°C° 0 mm 3 mps 694 mmHg 69%
    04:00 +24°C° 0 mm 3 mps 694 mmHg 71%
    05:00 +23°C° 0 mm 2 mps 694 mmHg 73%
    06:00 +24°C° 0 mm 2 mps 694 mmHg 67%
    07:00 +25°C° 0 mm 2 mps 694 mmHg 62%
    08:00 +26°C° 0 mm 3 mps 695 mmHg 56%
    09:00 +28°C° 0 mm 3 mps 695 mmHg 49%
    10:00 +29°C° 0 mm 3 mps 695 mmHg 42%
    11:00 +32°C° 0 mm 4 mps 695 mmHg 34%
    12:00 +33°C° 0 mm 4 mps 694 mmHg 32%
    13:00 +34°C° 0 mm 4 mps 694 mmHg 29%
    14:00 +35°C° 0 mm 5 mps 694 mmHg 26%
    15:00 +34°C° 0 mm 5 mps 694 mmHg 28%
    16:00 +33°C° 0 mm 5 mps 693 mmHg 30%
    17:00 +33°C° 0 mm 5 mps 693 mmHg 31%
    18:00 +30°C° 0 mm 5 mps 693 mmHg 36%
    19:00 +29°C° 0 mm 5 mps 693 mmHg 40%
    20:00 +28°C° 0 mm 4 mps 694 mmHg 44%
    21:00 +27°C° 0 mm 4 mps 694 mmHg 47%
    22:00 +27°C° 0 mm 4 mps 694 mmHg 51%
    23:00 +26°C° 0 mm 3 mps 694 mmHg 54%

    23 August, Wednesday

    Time Temperature Precipitation Wind Pressure Humidity
    00:00 +25°C° 0 mm 3 mps 694 mmHg 56%
    01:00 +25°C° 0 mm 2 mps 693 mmHg 59%
    02:00 +24°C° 0 mm 2 mps 693 mmHg 61%
    03:00 +24°C° 0 mm 2 mps 693 mmHg 63%
    04:00 +24°C° 0 mm 2 mps 693 mmHg 65%
    05:00 +23°C° 0 mm 2 mps 693 mmHg 67%
    06:00 +24°C° 0 mm 2 mps 694 mmHg 61%
    07:00 +25°C° 0 mm 2 mps 694 mmHg 54%
    08:00 +27°C° 0 mm 2 mps 694 mmHg 47%
    09:00 +28°C° 0 mm 2 mps 694 mmHg 41%
    10:00 +30°C° 0 mm 2 mps 695 mmHg 34%
    11:00 +32°C° 0 mm 2 mps 695 mmHg 27%
    12:00 +34°C° 0 mm 2 mps 694 mmHg 25%
    13:00 +35°C° 0 mm 2 mps 694 mmHg 23%
    14:00 +36°C° 0 mm 2 mps 694 mmHg 21%
    15:00 +36°C° 0 mm 3 mps 694 mmHg 22%
    16:00 +36°C° 0 mm 3 mps 694 mmHg 23%
    17:00 +36°C° 0 mm 4 mps 693 mmHg 24%
    18:00 +34°C° 0 mm 4 mps 694 mmHg 28%
    19:00 +33°C° 0 mm 3 mps 694 mmHg 33%
    20:00 +31°C° 0 mm 3 mps 694 mmHg 37%
    21:00 +30°C° 0 mm 3 mps 694 mmHg 40%
    22:00 +29°C° 0 mm 2 mps 694 mmHg 44%
    23:00 +28°C° 0 mm 2 mps 694 mmHg 48%

    24 August, Thursday

    Time Temperature Precipitation Wind Pressure Humidity
    00:00 +28°C° 0 mm 2 mps 693 mmHg 49%
    01:00 +28°C° 0 mm 2 mps 693 mmHg 51%
    02:00 +27°C° 0 mm 2 mps 693 mmHg 53%
    03:00 +27°C° 0 mm 2 mps 693 mmHg 53%
    04:00 +26°C° 0 mm 2 mps 693 mmHg 53%
    05:00 +26°C° 0 mm 1 mps 693 mmHg 53%
    06:00 +28°C° 0 mm 2 mps 694 mmHg 47%
    07:00 +29°C° 0 mm 2 mps 694 mmHg 42%
    08:00 +30°C° 0 mm 2 mps 694 mmHg 36%
    09:00 +32°C° 0 mm 2 mps 694 mmHg 31%
    10:00 +35°C° 0 mm 2 mps 695 mmHg 26%
    11:00 +37°C° 0 mm 2 mps 695 mmHg 21%
    12:00 +38°C° 0 mm 2 mps 694 mmHg 20%
    13:00 +39°C° 0 mm 2 mps 694 mmHg 18%
    14:00 +40°C° 0 mm 2 mps 694 mmHg 17%
    15:00 +40°C° 0 mm 3 mps 694 mmHg 18%
    16:00 +40°C° 0 mm 3 mps 694 mmHg 19%
    17:00 +40°C° 0 mm 4 mps 694 mmHg 20%
    18:00 +38°C° 0 mm 3 mps 694 mmHg 24%
    19:00 +37°C° 0 mm 3 mps 694 mmHg 27%
    20:00 +35°C° 0 mm 3 mps 694 mmHg 31%
    21:00 +34°C° 0 mm 3 mps 694 mmHg 35%
    22:00 +32°C° 0 mm 2 mps 694 mmHg 38%
    23:00 +32°C° 0 mm 2 mps 694 mmHg 42%

    25 August, Friday

    Time Temperature Precipitation Wind Pressure Humidity
    00:00 +31°C° 0 mm 2 mps 694 mmHg 44%
    01:00 +30°C° 0 mm 2 mps 693 mmHg 47%
    02:00 +30°C° 0 mm 2 mps 693 mmHg 49%
    03:00 +29°C° 0 mm 2 mps 693 mmHg 50%
    04:00 +29°C° 0 mm 2 mps 693 mmHg 51%
    05:00 +28°C° 0 mm 2 mps 694 mmHg 52%
    06:00 +30°C° 0 mm 2 mps 694 mmHg 46%
    07:00 +31°C° 0 mm 2 mps 694 mmHg 41%
    08:00 +34°C° 0 mm 2 mps 695 mmHg 35%
    09:00 +36°C° 0 mm 2 mps 695 mmHg 30%
    10:00 +37°C° 0 mm 2 mps 695 mmHg 25%
    11:00 +39°C° 0 mm 2 mps 695 mmHg 21%
    12:00 +40°C° 0 mm 2 mps 695 mmHg 19%
    13:00 +42°C° 0 mm 3 mps 694 mmHg 18%
    14:00 +43°C° 0 mm 3 mps 694 mmHg 17%
    15:00 +42°C° 0 mm 3 mps 694 mmHg 17%
    16:00 +42°C° 0 mm 4 mps 694 mmHg 18%
    17:00 +41°C° 0 mm 4 mps 694 mmHg 19%
    18:00 +39°C° 0 mm 3 mps 694 mmHg 21%
    19:00 +38°C° 0 mm 3 mps 694 mmHg 24%
    20:00 +36°C° 0 mm 3 mps 694 mmHg 27%
    21:00 +35°C° 0 mm 2 mps 694 mmHg 30%
    22:00 +35°C° 0 mm 2 mps 694 mmHg 32%
    23:00 +34°C° 0 mm 2 mps 694 mmHg 34%
    Show more